sat.trackr.live / text

‹ back to catalog

STARLINK-34451

NORAD 64433 · 2025-129X

PAYLOAD ACTIVE UNKNOWN

§ Identity

Operator
Country
US
Launch date
2025-06-17
Launch site
AFWTR
Launch vehicle
Mass (kg)
RCS (m²)

Purposes: comms

External: N2YO · Heavens-Above · Gunter

§ Orbital elements

Epoch: 2026-05-24T23:56:12.386112Z

Period
96.11 min
Inclination
70.0005°
Eccentricity
0.0003542
Mean motion
14.98335023 rev/d
Perigee alt
569.6 km
Apogee alt
574.5 km
Semi-major
6,950.2 km
B*
1.9923e-4
RAAN
242.2032°
Arg perigee
268.8852°
Mean anomaly
91.1901°
Rev number
5,265

§ Raw data

STARLINK-344511 64433U 25129X   26144.99736558  .00002285  00000+0  19923-3 0  99912 64433  70.0005 242.2032 0003542 268.8852  91.1901 14.98335023 52659

JSON: /api/v1/satellites/64433 · /tle

For live sub-satellite position, see the globe view (requires WebGL).

§ Visibility from observer

Set your observer location to see the next 7 days of passes ≥ 10°. The values pass through the URL so the page stays shareable.

No JS? Fill the form by hand. The geolocation button needs JavaScript.